www.pogodaiklimat.ru

Погода и климат >> Архив погоды >> Ирак >> Fao


ПОГОДА в Fao

  • Прогноз погоды в Fao
  • Монитор погоды в Fao
  • Климат города

АРХИВ ПОГОДЫ в Fao

Время (UTC), дата Ветер
(напр.,м/с)
 
Видим.   Явления Облачность Т
(С)
Тd
(С)
f
(%)
Тe
(С)
Тes
(С)
Комфортность P
(гПа)
Po
(гПа)
Тmin
(С)
Tmax
(С)
R
(мм)
R24
(мм)
S
(см)
21 9.08 СЗ 2 10 км ясно +37.0 +10.3 20 +36 +36 очень
жарко
1001.2 1001.0
00 10.08 штиль 0 10 км ясно +33.2 +14.0 31 +34 +34 очень
жарко
1001.6 1002.0
03 10.08 СЗ 2 10 км ясно +32.8 +10.5 25 +32 +33 жарко 1002.4 1002.0
06 10.08 СЗ 2 10 км ясно +38.4 +8.9 17 +37 +49 очень
жарко
1004.0 1004.0 +32.4
09 10.08 СЗ 3 10 км ясно +44.4 +11.3 14 +43 +60 опасность
перегрева
1003.4 1003.0
12 10.08 СЗ 3 10 км ясно +45.4 +10.4 13 +44 +53 опасность
перегрева
1001.2 1001.0
15 10.08 СЗ 2 10 км ясно +44.2 +12.6 16 +44 +44 опасность
перегрева
1000.4 1000.0
18 10.08 СЗ 3 10 км ясно +40.4 +9.2 15 +38 +38 очень
жарко
1002.4 1002.0 +45.8
21 10.08 СЗ 3 10 км ясно +36.6 +10.1 20 +35 +35 очень
жарко
1003.0 1003.0
00 11.08 СЗ 3 10 км ясно +34.0 +10.9 24 +33 +33 жарко 1001.8 1002.0
03 11.08 СЗ 2 10 км 3/0
[Ac trans]
+31.6 +11.1 28 +32 +32 жарко 1002.8 1003.0
06 11.08 СЗ 2 10 км ясно +38.6 +11.0 19 +38 +50 очень
жарко
1004.0 1004.0 +31.4
12 11.08 СЗ 4 10 км ясно +46.6 +4.9 8 +44 +50 опасность
перегрева
1000.6 1001.0
15 11.08 СЗ 3 10 км ясно +44.8 +7.8 11 +43 +43 опасность
перегрева
999.8 1000.0
18 11.08 СЗ 3 10 км ясно +40.0 +8.5 15 +38 +38 очень
жарко
1001.8 1002.0 +46.8
21 11.08 СЗ 2 10 км ясно +36.2 +9.9 20 +35 +35 очень
жарко
1002.4 1002.0
00 12.08 СЗ 4 10 км ясно +33.8 +9.5 23 +33 +33 жарко 1001.6 1002.0
03 12.08 СЗ 2 10 км ясно +32.0 +9.7 25 +31 +32 жарко 1002.0 1002.0
06 12.08 СЗ 5 10 км ясно +38.5 +6.9 15 +36 +43 очень
жарко
1002.2 1002.0 +31.8
09 12.08 СЗ 6 10 км ясно +44.4 +6.5 10 +42 +50 опасность
перегрева
1001.2 1001.0
12 12.08 СЗ 4 10 км ясно +47.0 +6.7 9 +44 +51 опасность
перегрева
998.2 998.0
15 12.08 СЗ 5 10 км ясно +45.2 +7.3 11 +43 +43 опасность
перегрева
997.2 997.0
18 12.08 СЗ 5 10 км ясно +40.2 +7.6 14 +38 +38 очень
жарко
998.6 999.0 +47.6
21 12.08 СЗ 5 10 км ясно +36.6 +7.7 17 +35 +35 очень
жарко
998.4 998.0
00 13.08 СЗ 5 10 км ясно +36.6 +7.7 17 +35 +35 очень
жарко
998.4 998.0
03 13.08 СЗ 3 10 км ясно +32.8 +10.5 25 +32 +33 жарко 998.0 998.0
06 13.08 СЗ 5 10 км ясно +39.0 +8.2 16 +37 +44 очень
жарко
999.0 999.0 +32.5
09 13.08 СЗ 9 6000 м пыльный позёмок ясно +43.4 +5.1 10 +41 +43 опасность
перегрева
997.6 998.0
12 13.08 СЗ 9 8000 м пыльный позёмок ясно +45.2 +5.1 9 +42 +43 опасность
перегрева
995.8 996.0
18 13.08 СЗ 6 10 км ясно +37.8 +6.3 15 +35 +35 очень
жарко
996.8 997.0 +46.0
21 13.08 СЗ 3 10 км ясно +34.6 +9.8 22 +34 +34 очень
жарко
997.6 998.0
00 14.08 СЗ 3 10 км ясно +31.8 +10.4 27 +32 +32 жарко 997.6 998.0
03 14.08 СЗ 2 10 км ясно +29.6 +9.4 28 +29 +30 жарко 998.6 999.0
06 14.08 СЗ 4 10 км ясно +37.0 +5.3 14 +34 +43 очень
жарко
999.8 1000.0 +29.4
09 14.08 СЗ 4 10 км ясно +42.6 +7.5 12 +40 +54 опасность
солнечного
удара
999.4 999.0
12 14.08 СЗ 4 10 км ясно +44.6 +4.3 9 +42 +48 опасность
перегрева
997.8 998.0
15 14.08 СЗ 5 10 км ясно +42.2 +7.3 12 +40 +40 очень
жарко
997.8 998.0
18 14.08 З 4 10 км ясно +37.8 +8.9 17 +36 +36 очень
жарко
1000.0 1000.0 +45.5
21 14.08 СЗ 2 10 км ясно +34.6 +9.2 21 +33 +33 жарко 1000.4 1000.0
00 15.08 СЗ 2 10 км ясно +33.5 +4.2 16 +31 +31 жарко 1000.6 1001.0
09 15.08 СЗ 4 10 км ясно +42.4 +7.0 12 +40 +54 опасность
солнечного
удара
1001.4 1001.0
12 15.08 СЗ 5 10 км ясно +44.2 +3.1 8 +41 +46 опасность
перегрева
1000.2 1000.0
15 15.08 СЗ 4 10 км ясно +42.5 +3.1 9 +39 +39 очень
жарко
1000.0 1000.0
18 15.08 ЮЗ 2 10 км ясно +35.2 +8.6 20 +34 +34 очень
жарко
1001.0 1001.0 +45.5
21 15.08 З 2 10 км ясно +32.5 +13.6 32 +34 +34 очень
жарко
1001.6 1002.0
00 16.08 ЮЗ 3 10 км ясно +31.2 +12.4 32 +32 +32 жарко 1001.4 1001.0
03 16.08 З 4 10 км ясно +31.0 +8.7 25 +30 +31 жарко 1002.4 1002.0
06 16.08 З 2 10 км ясно +37.4 +11.0 20 +36 +49 очень
жарко
1003.2 1003.0 +30.0
09 16.08 СЗ 2 10 км ясно +44.0 +9.9 13 +42 +62 опасность
перегрева
1003.0 1003.0
12 16.08 СЗ 2 10 км ясно +45.4 +7.8 11 +43 +53 опасность
перегрева
1000.8 1001.0
15 16.08 З 2 10 км ясно +44.2 +6.7 11 +42 +42 опасность
перегрева
1000.0 1000.0
18 16.08 З 3 10 км ясно +38.6 +8.7 16 +37 +37 очень
жарко
1001.0 1001.0 +46.0

 

Местоположение метеостанции Fao (Ирак): широта 29.98 долгота 48.50 высота над уровнем моря 2 м.

В архиве по умолчанию представлена погода в Fao за последнюю неделю. Архивные данные за месяц целиком и за предыдущие месяцы, начиная с января 2011 года, Вы можете получить, выбрав интересующий диапазон дат из раскрывающегося списка и нажав кнопку "Ввод!".


*Определитесь, кто Вы:
робот инопланетянин человек

Внимание! Время в таблицах - всемирное. Для получения местного времени необходимо прибавить поправку, которая в Fao равна 3 ч.

Смотрите также архив погоды в соседних городах и на ближайших метеорологических станциях:

Погода в Bubiyan (Кувейт) (26 км)
Погода в Abadan (Иран) (50 км)
Погода в Failaka Island (Кувейт) (61 км)
Погода в Sabriyah (Кувейт) (68 км)
Погода в Abdaly (Кувейт) (78 км)
Погода в Al-Shuaiba (Кувейт) (80 км)
Погода в Kuwait City (Кувейт) (84 км)
Погода в Basrah Airport (Ирак) (92 км)
Погода в Experimental Farm (Кувейт) (94 км)
Погода в Basrah (Ирак) (95 км)

Пояснения к столбцам:

Ветер - указаны скорость ветра в м/с - средняя за 10 мин, порывы в срок и между сроками (в фигурных скобках) и направление, откуда дует ветер: С - северный, СВ - северо-восточный, В - восточный, ЮВ - юго-восточный, Ю - южный, ЮЗ - юго-западный, З - западный, СЗ - северо-западный.
Видимость - горизонтальная дальность видимости в метрах или километрах. При видимости от 1 до 10 км при отсутствии осадков обычно наблюдается дымка, при ухудшении видимости до 1 км и менее - туман. В сухую погоду видимость может ухудшаться дымом, пылью или мглою.
Явления - указаны атмосферные явления, наблюдавшиеся в срок или в последний час перед сроком; фигурными скобками обозначены явления, наблюдавшиеся между сроками (за 1-3 часа до срока); квадратными скобками обозначены град или гололедные отложения с указанием их диаметра в мм.
Облачность - указаны через наклонную черту общая и нижняя облачность в баллах и высота нижней границы облаков в метрах; квадратными скобками обозначены формы облаков: Ci - перистые, Cs - перисто-слоистые, Cc - перисто-кучевые, Ac - высококучевые, As - высокослоистые, Sc - слоисто-кучевые, Ns - слоисто-дождевые, Cu - кучевые, Cb - кучево-дождевые. Подробнее классификацию облаков см. в Атласе облаков (PDF).
T - Температура воздуха - температура, измеренная на высоте 2 м над землей.
Td - Температура точки росы - температура, при понижении до которой содержащийся в воздухе водяной пар достигнет насыщения.
f - Относительная влажность воздуха - влажноcть воздуха, измеренная на высоте 2 м над землей.
Te - Эффективная температура - температура, которую ощущает одетый по сезону человек в тени. Характеристика душности погоды. При расчете учитывается влияние влажности воздуха и скорости ветра на теплоощущения человека.
Tes - Эффективная температура на солнце - температура, которую ощущает человек, с поправкой на солнечный нагрев. Характеристика знойности погоды. Зависит от высоты солнца над горизонтом, облачности и скорости ветра. Ночью, в пасмурную погоду, а также при ветре 12 м/с и более поправка равна нулю.
P - Атмосферное давление - приведенное к уровню моря атмосферное давление.
Po - Атмосферное давление - измеренное на уровне метеостанции атмосферное давление.
Tmin - Минимальная температура - минимум температуры воздуха на высоте 2 м над землей.
Tmax - Максимальная температура - максимум температуры воздуха на высоте 2 м над землей.
R - Количество осадков - Количество выпавших осадков за период времени, мм. При наведении курсора мыши на число - период времени, за который выпало указанное количество осадков.
R24 - Количество осадков - Количество выпавших осадков за 24 часа, мм.
S - Снежный покров - Высота снежного покрова, см. При наведении курсора мыши на число - состояние снежного покрова и степень покрытия местности в баллах.